When you browse on this site, cookies collect data to enhance your experience and personalize the content and advertising you see.
Visit our Privacy Policy to learn more. By continuing to use the site, you agree to this use of cookies and data.
  • In United Kingdom
  • List of Countries
  • For 7 days
  • Water Temperature
  • Weather Map
  • Weather Widgets
  • user-avatar
    Login

    Hourly Weather Carmarthen

    Today, 28 February, Friday

    Time Temperature Precipitation Wind Pressure Humidity
    00:00 -1°C° 0 mm 6 mps 753 mmHg 87%
    01:00 -1°C° 0 mm 6 mps 752 mmHg 87%
    02:00 -1°C° 0 mm 6 mps 752 mmHg 86%
    03:00 +1°C° 0 mm 5 mps 751 mmHg 85%
    04:00 +1°C° 0.1 mm 6 mps 750 mmHg 87%
    05:00 0°C° 0.1 mm 7 mps 749 mmHg 88%
    06:00 +2°C° 0.1 mm 7 mps 748 mmHg 90%
    07:00 +1°C° 1 mm 9 mps 746 mmHg 92%
    08:00 +1°C° 1 mm 10 mps 745 mmHg 94%
    09:00 +2°C° 1 mm 12 mps 743 mmHg 96%
    10:00 +2°C° 1.4 mm 11 mps 742 mmHg 96%
    11:00 +3°C° 1.4 mm 10 mps 741 mmHg 97%
    12:00 +5°C° 1.4 mm 10 mps 739 mmHg 97%
    13:00 +6°C° 0.4 mm 8 mps 738 mmHg 96%
    14:00 +8°C° 0.4 mm 7 mps 738 mmHg 95%
    15:00 +9°C° 0.4 mm 5 mps 737 mmHg 94%
    16:00 +8°C° 0.1 mm 5 mps 736 mmHg 94%
    17:00 +8°C° 0.1 mm 5 mps 736 mmHg 93%
    18:00 +7°C° 0.1 mm 4 mps 736 mmHg 93%
    19:00 +7°C° 0.1 mm 5 mps 735 mmHg 94%
    20:00 +7°C° 0.1 mm 5 mps 734 mmHg 95%
    21:00 +7°C° 0.1 mm 6 mps 733 mmHg 96%
    22:00 +7°C° 0.4 mm 6 mps 731 mmHg 96%
    23:00 +6°C° 0.4 mm 7 mps 730 mmHg 97%

    Tomorrow, 29 February, Saturday

    Time Temperature Precipitation Wind Pressure Humidity
    00:00 +7°C° 0.4 mm 8 mps 728 mmHg 97%
    01:00 +5°C° 1.6 mm 9 mps 727 mmHg 96%
    02:00 +3°C° 1.6 mm 11 mps 726 mmHg 95%
    03:00 +2°C° 1.6 mm 12 mps 725 mmHg 94%
    04:00 +1°C° 0.2 mm 11 mps 726 mmHg 90%
    05:00 0°C° 0.2 mm 10 mps 726 mmHg 86%
    06:00 -1°C° 0.2 mm 9 mps 727 mmHg 82%
    07:00 -2°C° 0 mm 10 mps 727 mmHg 81%
    08:00 -2°C° 0 mm 10 mps 726 mmHg 80%
    09:00 -3°C° 0 mm 11 mps 726 mmHg 79%
    10:00 -2°C° 0 mm 13 mps 724 mmHg 79%
    11:00 -1°C° 0 mm 15 mps 723 mmHg 79%
    12:00 -2°C° 0 mm 17 mps 721 mmHg 79%
    13:00 -2°C° 0.8 mm 17 mps 720 mmHg 83%
    14:00 -2°C° 0.8 mm 18 mps 719 mmHg 87%
    15:00 -2°C° 0.8 mm 19 mps 718 mmHg 92%
    16:00 -3°C° 1.1 mm 19 mps 719 mmHg 92%
    17:00 -3°C° 1.1 mm 19 mps 719 mmHg 92%
    18:00 -3°C° 1.1 mm 19 mps 720 mmHg 92%
    19:00 -3°C° 0.7 mm 19 mps 720 mmHg 91%
    20:00 -3°C° 0.7 mm 18 mps 721 mmHg 90%
    21:00 -3°C° 0.7 mm 18 mps 722 mmHg 90%
    22:00 -3°C° 0.3 mm 18 mps 722 mmHg 89%
    23:00 -3°C° 0.3 mm 18 mps 723 mmHg 89%

    Day after tomorrow, 1 March, Sunday

    Time Temperature Precipitation Wind Pressure Humidity
    00:00 -3°C° 0.3 mm 17 mps 724 mmHg 89%
    01:00 -2°C° 0 mm 16 mps 724 mmHg 86%
    02:00 -1°C° 0 mm 15 mps 725 mmHg 84%
    03:00 -1°C° 0 mm 15 mps 725 mmHg 81%
    04:00 -2°C° 0 mm 14 mps 726 mmHg 80%
    05:00 -2°C° 0 mm 14 mps 726 mmHg 79%
    06:00 -2°C° 0 mm 13 mps 726 mmHg 78%
    07:00 -2°C° 0 mm 13 mps 726 mmHg 80%
    08:00 -2°C° 0 mm 14 mps 727 mmHg 82%
    09:00 -1°C° 0 mm 14 mps 727 mmHg 84%
    10:00 0°C° 0.1 mm 14 mps 727 mmHg 80%
    11:00 0°C° 0.1 mm 14 mps 728 mmHg 76%
    12:00 +1°C° 0.1 mm 14 mps 728 mmHg 71%
    13:00 +1°C° 0 mm 13 mps 729 mmHg 71%
    14:00 +1°C° 0 mm 13 mps 729 mmHg 72%
    15:00 +2°C° 0 mm 12 mps 730 mmHg 72%
    16:00 +1°C° 0.1 mm 11 mps 730 mmHg 75%
    17:00 -1°C° 0.1 mm 11 mps 730 mmHg 78%
    18:00 0°C° 0.1 mm 10 mps 730 mmHg 81%
    19:00 -2°C° 0 mm 11 mps 730 mmHg 83%
    20:00 -2°C° 0 mm 11 mps 730 mmHg 84%
    21:00 -2°C° 0 mm 12 mps 730 mmHg 85%
    22:00 -2°C° 0 mm 11 mps 731 mmHg 85%
    23:00 -2°C° 0 mm 11 mps 731 mmHg 86%

    2 March, Monday

    Time Temperature Precipitation Wind Pressure Humidity
    00:00 -2°C° 0 mm 11 mps 731 mmHg 86%
    01:00 -2°C° 0 mm 11 mps 732 mmHg 85%
    02:00 -2°C° 0 mm 11 mps 732 mmHg 84%
    03:00 -2°C° 0 mm 10 mps 732 mmHg 84%
    04:00 -2°C° 0 mm 10 mps 732 mmHg 83%
    05:00 -2°C° 0 mm 10 mps 733 mmHg 83%
    06:00 -2°C° 0 mm 11 mps 733 mmHg 83%
    07:00 -2°C° 0 mm 10 mps 733 mmHg 84%
    08:00 0°C° 0 mm 10 mps 734 mmHg 84%
    09:00 0°C° 0 mm 10 mps 734 mmHg 85%
    10:00 +1°C° 0 mm 10 mps 735 mmHg 82%
    11:00 +1°C° 0 mm 11 mps 735 mmHg 79%
    12:00 +2°C° 0 mm 11 mps 736 mmHg 76%
    13:00 +2°C° 0 mm 11 mps 736 mmHg 76%
    14:00 +2°C° 0 mm 11 mps 737 mmHg 76%
    15:00 +2°C° 0 mm 11 mps 737 mmHg 75%
    16:00 +2°C° 0 mm 11 mps 737 mmHg 78%
    17:00 +1°C° 0 mm 11 mps 738 mmHg 81%
    18:00 -1°C° 0 mm 11 mps 738 mmHg 84%
    19:00 +1°C° 0.2 mm 11 mps 739 mmHg 85%
    20:00 0°C° 0.2 mm 12 mps 739 mmHg 85%
    21:00 0°C° 0.2 mm 12 mps 739 mmHg 86%
    22:00 0°C° 0.3 mm 12 mps 740 mmHg 84%
    23:00 0°C° 0.3 mm 12 mps 741 mmHg 83%

    3 March, Tuesday

    Time Temperature Precipitation Wind Pressure Humidity
    00:00 0°C° 0.3 mm 13 mps 741 mmHg 81%
    01:00 0°C° 0 mm 12 mps 742 mmHg 82%
    02:00 0°C° 0 mm 12 mps 742 mmHg 83%
    03:00 0°C° 0 mm 12 mps 743 mmHg 83%
    04:00 +1°C° 0 mm 11 mps 744 mmHg 83%
    05:00 -1°C° 0 mm 11 mps 744 mmHg 82%
    06:00 0°C° 0 mm 10 mps 745 mmHg 82%
    07:00 0°C° 0 mm 10 mps 745 mmHg 80%
    08:00 0°C° 0 mm 10 mps 745 mmHg 78%
    09:00 +1°C° 0 mm 10 mps 746 mmHg 77%
    10:00 +1°C° 0 mm 9 mps 746 mmHg 73%
    11:00 +2°C° 0 mm 9 mps 746 mmHg 70%
    12:00 +3°C° 0 mm 9 mps 746 mmHg 66%
    13:00 +4°C° 0 mm 8 mps 746 mmHg 65%
    14:00 +4°C° 0 mm 8 mps 746 mmHg 64%
    15:00 +4°C° 0 mm 8 mps 747 mmHg 63%
    16:00 +3°C° 0 mm 7 mps 747 mmHg 67%
    17:00 +2°C° 0 mm 6 mps 747 mmHg 72%
    18:00 +1°C° 0 mm 6 mps 747 mmHg 77%
    19:00 0°C° 0 mm 5 mps 747 mmHg 79%
    20:00 -1°C° 0 mm 5 mps 748 mmHg 82%
    21:00 -2°C° 0 mm 5 mps 748 mmHg 85%
    22:00 -2°C° 0 mm 5 mps 748 mmHg 86%
    23:00 -2°C° 0 mm 5 mps 748 mmHg 87%

    4 March, Wednesday

    Time Temperature Precipitation Wind Pressure Humidity
    00:00 -2°C° 0 mm 4 mps 748 mmHg 88%
    01:00 -2°C° 0 mm 4 mps 748 mmHg 88%
    02:00 -3°C° 0 mm 4 mps 748 mmHg 88%
    03:00 -3°C° 0 mm 4 mps 748 mmHg 88%
    04:00 -3°C° 0 mm 4 mps 748 mmHg 88%
    05:00 -3°C° 0 mm 4 mps 748 mmHg 88%
    06:00 -3°C° 0 mm 4 mps 748 mmHg 88%
    07:00 -2°C° 0 mm 4 mps 748 mmHg 83%
    08:00 -1°C° 0 mm 4 mps 748 mmHg 79%
    09:00 0°C° 0 mm 4 mps 749 mmHg 74%
    10:00 +3°C° 0 mm 3 mps 749 mmHg 71%
    11:00 +4°C° 0 mm 3 mps 749 mmHg 67%
    12:00 +5°C° 0 mm 3 mps 749 mmHg 64%
    13:00 +5°C° 0.1 mm 3 mps 749 mmHg 69%
    14:00 +5°C° 0.1 mm 4 mps 749 mmHg 74%
    15:00 +4°C° 0.1 mm 4 mps 749 mmHg 78%
    16:00 +4°C° 0.1 mm 4 mps 749 mmHg 82%
    17:00 +2°C° 0.1 mm 5 mps 749 mmHg 86%
    18:00 +2°C° 0.1 mm 5 mps 749 mmHg 90%
    19:00 +1°C° 0 mm 5 mps 750 mmHg 90%
    20:00 +1°C° 0 mm 5 mps 750 mmHg 89%
    21:00 +1°C° 0 mm 6 mps 751 mmHg 89%
    22:00 +1°C° 0.1 mm 6 mps 751 mmHg 89%
    23:00 +1°C° 0.1 mm 6 mps 751 mmHg 89%
    Show more